Location: St. Louis
(38.6270°N, 90.1994°W)
Time: 04:24:23
(UTC-05:00)

RS-15 - Pass Details

Date: 02 February 2022
Orbit: 1881 x 2163 km, 64.8° (Epoch: 20 May)

Event Time Altitude Azimuth Distance (km) Brightness Sun altitude
Rises 00:05:08 0° 326° (NW) 5,658 10.7 -68.1°
Reaches altitude 10° 00:09:00 10° 334° (NNW) 4,672 10.2 -68.1°
Enters shadow 00:11:26 17° 341° (NNW) 4,097 9.8 -68.2°
